Vertical_Velocity
-2 1 -1 -0 -1 -0 -0 -0 -2 -4 -0 -3 -5 -3 -3 -4 -4 -6 -2 -3 4 29 35 -9 1 6 18 -5 -14 -11 -5 -9 7 6 -18 4 -6 -4 -6 -2 -2 6 4 1 3
0 -0 -0 -1 -1 -0 -1 -0 -2 -3 -1 -2 -5 -4 -5 -2 -2 -4 -5 -1 3 23 9 -7 -1 12 4 -1 33 -16 -2 3 9 8 -11 9 6 -0 -4 -1 -2 4 -7 -6 1
0 0 -0 -0 -2 1 0 1 -2 -3 -0 -3 -4 -2 -5 -0 -2 -6 -3 -1 0 7 3 -9 0 -6 4 33 18 15 9 2 6 -4 4 4 3 -3 -4 1 8 11 1 0 -5
-1 -0 0 -1 -2 2 -0 1 -2 -3 -1 -6 -5 -2 -6 -0 -4 -5 -5 -5 -6 1 34 -1 -6 13 0 36 20 13 12 -2 0 7 -1 -3 -4 -6 -6 2 8 4 -3 2 -2
-1 -0 0 -2 -2 2 0 -0 -3 -2 -0 -7 -8 -9 -7 -3 -2 -7 -4 -4 -1 14 22 -2 -5 -2 11 18 14 2 49 -3 2 -3 0 -6 -11 -2 3 4 -1 -4 -4 4 -3
0 -0 1 -1 -1 1 0 -0 -4 -1 -1 -3 -9 -5 -14 -5 -6 -5 -7 -6 1 -5 -3 -3 -7 -5 -4 11 14 22 26 -5 -3 -4 1 -8 0 -5 -4 3 -0 -0 -7 -1 3
-0 -0 -1 -0 1 2 -0 -0 -3 -2 -3 -2 -10 -7 -12 -11 -8 -5 -4 1 -5 10 2 -7 -18 -8 3 4 11 8 8 29 -2 9 -1 -5 0 -4 -5 -1 1 3 2 3 -5
-1 -2 0 -1 1 1 0 1 -2 -2 -3 -3 -8 -6 -10 -4 -10 -7 -9 -6 4 3 5 1 2 -8 -10 -13 -5 -7 7 26 4 -6 -15 23 3 -3 -1 2 -2 -1 2 -2 1
2 -3 -0 -1 0 0 -0 3 -1 -1 -3 -3 -9 -9 -5 -2 -19 -19 -12 -1 -3 -4 -4 -0 1 2 6 0 0 -8 2 2 5 13 56 -6 22 2 -4 -0 -3 -1 3 -0 -3
2 -2 -2 0 1 1 -2 0 2 -3 -1 -5 -7 -9 -5 -0 -9 -4 -7 -4 -4 -2 -7 -3 -3 -8 -5 1 -8 1 -3 -4 3 2 6 6 3 3 -1 -10 -1 -3 -2 -0 -6
3 -2 -2 1 3 1 -2 2 0 -2 -0 1 -5 -4 -2 -0 -7 -7 -2 -12 -1 -2 -3 -3 -1 -0 -0 -5 2 -6 -11 1 -3 2 10 14 4 5 -1 5 -3 2 -2 -5 -2
-0 -1 -1 2 2 1 -0 -1 1 -1 -3 -2 -3 -3 -3 -1 -2 -4 -1 4 -1 -2 -1 -3 -4 -4 -1 -1 -10 1 -1 1 1 -6 11 -1 3 4 7 2 8 3 -2 0 2
1 -3 1 2 1 1 2 -2 1 2 -3 -1 -3 -6 -2 -2 -2 -0 -5 -6 -3 1 -2 -4 -3 -1 -4 -5 -0 5 1 -3 5 4 -9 -3 1 -6 -5 -5 -9 -7 0 -2 2
0 -1 3 1 1 -0 3 -2 0 -1 -1 1 -3 -3 -2 -2 -3 -1 -1 -5 -3 -6 -6 -6 1 -0 -2 -1 5 5 -5 -5 -8 -5 9 1 0 1 1 1 -9 -0 -3 1 2
2 -2 1 1 3 1 0 0 1 -0 -1 -2 -4 -3 -4 -5 -4 -2 0 1 0 1 -1 -1 2 3 3 -0 -2 -4 6 4 0 0 -3 -2 -4 8 -3 -11 -2 5 0 2 -2
2 -0 -1 2 2 2 -1 1 1 -1 -1 1 1 -1 -1 -1 -3 -2 -2 -3 -5 -2 0 0 4 3 2 2 2 4 -8 -2 -3 -1 -15 3 1 4 -9 9 -1 -6 -7 4 3
4 -1 -1 4 1 1 -1 0 -0 -0 -1 0 -0 -2 -2 -2 -3 -2 1 -0 -2 -6 -1 4 -1 1 1 0 -1 1 1 -2 -2 6 -17 -2 -21 14 -9 -0 2 1 6 6 3
3 -1 -0 5 1 0 -1 1 -0 -0 -1 0 0 -2 -2 -3 -4 -4 -2 -2 -1 1 1 3 2 8 1 4 8 6 5 15 3 -2 6 -2 -28 3 13 -13 -2 -4 -1 -3 1
2 -2 2 4 0 3 -2 -0 0 0 0 -0 -0 -1 -1 1 -0 -0 -3 -2 -1 1 -0 1 3 0 8 1 5 1 -8 7 2 -1 5 -3 -4 0 11 -8 -4 -2 -2 -2 -1
0 -1 -0 3 0 4 -2 -1 1 1 -0 0 -0 -0 -1 0 -1 -0 0 0 -3 1 2 1 2 -0 4 2 -3 -2 5 -1 4 -6 -2 -5 -7 -6 -1 3 -8 -3 -3 -0 2
4 0 1 1 -0 4 -2 0 2 1 1 0 0 -1 -0 -0 1 -1 2 -2 0 1 -0 3 -1 10 7 -3 12 4 -0 -5 5 -1 -5 -2 -9 11 0 -1 5 -2 -3 -4 -4
8 0 -1 3 -0 4 -2 -0 1 1 -1 1 2 0 -1 -3 -4 -5 -3 -2 -3 -2 -0 3 1 1 5 3 1 4 0 1 -4 -6 -2 -4 -6 2 3 0 5 2 -2 -2 -1
-0 -0 -3 3 1 2 -2 1 1 -1 -0 0 0 0 -0 2 1 -1 0 2 2 2 4 0 -2 12 -0 -1 -2 -11 1 4 -1 3 -8 -3 4 3 3 4 0 -2 -1 -2 -1
-4 -5 -1 1 2 1 -2 1 1 -0 -1 1 0 -1 -0 -3 -3 1 5 5 1 -3 4 1 2 1 13 -2 2 -5 19 1 1 -5 10 -4 10 1 3 6 5 -0 -0 1 0
1 -2 0 2 6 1 -2 -0 1 -1 -0 0 0 2 1 -1 -3 -3 0 -0 -1 3 1 9 -1 -5 -4 2 13 11 -2 11 8 2 -9 20 3 4 2 3 -1 1 1 0 -1
-0 0 1 5 4 2 -1 0 1 0 0 -0 1 2 2 1 1 1 2 -2 3 -1 -2 2 3 -2 8 -3 3 -0 -4 -4 -2 4 -6 5 -5 -1 2 -7 -5 -0 -2 -5 -4
1 1 0 3 3 2 -1 1 1 1 -2 1 2 -0 -0 1 -0 -2 0 1 3 2 -5 -5 -1 -0 -1 2 -1 -5 10 7 -3 -2 10 -34 48 22 -0 -5 6 -3 -9 -0 2
Height
5782 5777 5772 5767 5762 5755 5747 5738 5726 5713 5694 5674 5650 5624 5598 5584 5580 5578 5584 5587 5591 5599 5603 5614 5627 5641 5657 5667 5686 5700 5705 5719 5733 5740 5750 5764 5768 5774 5784 5793 5798 5803 5812 5816 5827
5776 5773 5768 5762 5757 5751 5743 5734 5723 5709 5691 5671 5647 5620 5595 5586 5583 5583 5586 5588 5595 5601 5607 5618 5629 5639 5651 5665 5679 5693 5705 5719 5726 5737 5748 5758 5765 5772 5782 5790 5796 5800 5804 5811 5822
5772 5767 5763 5758 5752 5747 5740 5731 5720 5707 5689 5671 5646 5619 5596 5589 5589 5589 5589 5592 5597 5606 5615 5625 5633 5640 5654 5668 5680 5685 5701 5712 5722 5731 5742 5749 5760 5767 5776 5786 5794 5800 5802 5807 5816
5767 5763 5759 5754 5748 5743 5737 5729 5718 5706 5689 5672 5650 5622 5600 5592 5593 5591 5595 5599 5603 5612 5618 5629 5637 5644 5656 5662 5675 5689 5694 5706 5716 5727 5737 5743 5754 5762 5772 5781 5787 5794 5799 5804 5809
5762 5759 5755 5750 5745 5739 5734 5726 5716 5705 5689 5674 5653 5628 5611 5596 5592 5594 5602 5608 5612 5617 5621 5631 5640 5646 5655 5661 5676 5686 5694 5703 5713 5725 5735 5741 5752 5763 5770 5778 5783 5789 5796 5800 5805
5757 5754 5750 5746 5742 5736 5731 5724 5715 5704 5690 5674 5655 5634 5617 5608 5602 5604 5611 5617 5621 5625 5632 5639 5647 5653 5659 5661 5673 5685 5694 5700 5713 5723 5730 5739 5749 5757 5765 5773 5780 5786 5793 5800 5801
5752 5749 5746 5742 5738 5733 5728 5722 5713 5703 5691 5676 5659 5640 5626 5619 5615 5618 5621 5626 5631 5635 5639 5641 5649 5656 5660 5664 5672 5681 5689 5699 5711 5720 5727 5737 5744 5751 5758 5766 5774 5781 5787 5794 5801
5746 5744 5741 5738 5735 5731 5725 5720 5712 5703 5692 5678 5663 5647 5637 5632 5631 5630 5631 5633 5637 5638 5641 5648 5654 5659 5664 5668 5676 5683 5689 5697 5708 5717 5723 5728 5737 5746 5752 5759 5767 5774 5782 5789 5796
5739 5738 5737 5734 5732 5728 5723 5718 5711 5703 5693 5681 5668 5655 5647 5642 5642 5641 5641 5642 5644 5645 5649 5652 5656 5661 5668 5669 5677 5682 5689 5693 5704 5711 5713 5724 5732 5738 5744 5752 5760 5767 5774 5781 5788
5733 5732 5732 5729 5728 5725 5721 5715 5710 5702 5695 5685 5674 5667 5654 5650 5650 5649 5649 5648 5650 5652 5655 5658 5661 5664 5667 5672 5678 5685 5691 5695 5700 5705 5713 5719 5725 5731 5740 5747 5752 5758 5764 5772 5781
5726 5725 5726 5725 5724 5722 5718 5713 5710 5704 5696 5689 5678 5669 5661 5656 5653 5653 5652 5654 5656 5657 5658 5661 5665 5667 5669 5672 5676 5680 5684 5689 5696 5704 5708 5713 5718 5726 5732 5736 5744 5750 5756 5763 5771
5719 5718 5720 5720 5720 5718 5715 5710 5707 5703 5696 5690 5683 5672 5664 5660 5656 5655 5655 5658 5659 5660 5661 5663 5665 5668 5671 5675 5677 5677 5685 5689 5693 5696 5703 5704 5715 5719 5725 5734 5741 5744 5750 5759 5765
5712 5712 5713 5714 5715 5714 5712 5708 5705 5700 5696 5691 5684 5676 5668 5663 5659 5658 5657 5657 5658 5660 5661 5662 5666 5668 5669 5672 5676 5679 5682 5688 5692 5694 5698 5704 5708 5711 5719 5725 5731 5737 5745 5751 5758
5704 5705 5706 5707 5711 5709 5708 5704 5702 5699 5695 5692 5685 5680 5672 5666 5662 5658 5658 5658 5657 5658 5659 5661 5664 5667 5668 5670 5673 5675 5678 5684 5688 5691 5697 5700 5706 5708 5710 5717 5724 5735 5740 5746 5749
5697 5698 5699 5701 5704 5704 5704 5701 5698 5697 5694 5691 5684 5679 5672 5668 5664 5660 5659 5659 5659 5658 5659 5660 5659 5661 5663 5666 5668 5673 5675 5679 5683 5685 5688 5695 5700 5707 5707 5713 5719 5725 5732 5737 5743
5688 5690 5693 5695 5697 5699 5698 5696 5695 5695 5690 5688 5684 5678 5673 5666 5663 5659 5657 5656 5655 5656 5654 5653 5654 5657 5659 5661 5663 5666 5669 5673 5675 5679 5681 5689 5695 5701 5705 5712 5713 5719 5726 5731 5734
5679 5682 5686 5688 5691 5693 5692 5693 5692 5689 5689 5685 5681 5676 5672 5666 5662 5658 5654 5651 5650 5649 5648 5646 5648 5650 5653 5656 5658 5661 5663 5666 5670 5673 5674 5680 5682 5698 5701 5704 5709 5715 5720 5723 5727
5671 5674 5677 5682 5684 5686 5687 5689 5687 5686 5683 5681 5677 5674 5670 5665 5661 5655 5651 5647 5644 5642 5640 5640 5644 5645 5647 5651 5654 5655 5660 5660 5662 5668 5673 5673 5676 5689 5693 5694 5700 5705 5710 5714 5718
5663 5667 5670 5675 5677 5681 5682 5683 5683 5682 5679 5677 5674 5671 5668 5663 5659 5653 5646 5642 5639 5634 5633 5633 5635 5638 5641 5643 5646 5649 5651 5655 5657 5659 5663 5667 5673 5678 5683 5686 5690 5694 5700 5704 5708
5654 5660 5664 5668 5670 5675 5676 5678 5678 5678 5676 5674 5671 5668 5664 5660 5654 5648 5642 5638 5633 5627 5623 5624 5627 5627 5630 5633 5638 5642 5646 5649 5650 5652 5654 5660 5665 5671 5674 5679 5684 5687 5690 5694 5698
5646 5653 5657 5661 5664 5670 5671 5673 5674 5674 5672 5670 5668 5665 5661 5656 5650 5645 5640 5634 5626 5622 5616 5614 5615 5620 5620 5626 5632 5636 5638 5642 5645 5647 5649 5652 5659 5664 5666 5671 5676 5679 5681 5684 5689
5638 5646 5651 5656 5659 5664 5666 5668 5670 5670 5668 5666 5664 5661 5658 5654 5649 5642 5636 5628 5622 5614 5609 5607 5606 5609 5614 5618 5621 5624 5629 5633 5636 5643 5645 5647 5653 5657 5660 5664 5667 5671 5674 5677 5680
5631 5639 5645 5650 5653 5659 5662 5663 5665 5666 5665 5662 5661 5657 5654 5651 5648 5640 5633 5625 5617 5609 5602 5599 5600 5604 5606 5611 5613 5617 5622 5626 5630 5635 5638 5642 5649 5651 5654 5658 5660 5664 5667 5669 5672
5625 5632 5639 5644 5648 5654 5657 5659 5661 5662 5661 5659 5657 5655 5652 5648 5643 5638 5630 5622 5614 5605 5597 5592 5592 5595 5598 5602 5606 5610 5614 5619 5622 5626 5633 5637 5641 5645 5647 5650 5653 5655 5659 5662 5666
5619 5626 5634 5638 5644 5649 5652 5656 5657 5658 5657 5656 5654 5651 5650 5647 5642 5635 5628 5619 5611 5603 5594 5586 5585 5588 5593 5596 5597 5603 5606 5611 5613 5619 5624 5631 5634 5638 5641 5642 5645 5648 5651 5654 5657
5612 5620 5627 5633 5639 5645 5648 5652 5654 5654 5653 5651 5649 5647 5646 5642 5638 5632 5625 5617 5609 5601 5594 5584 5578 5578 5586 5589 5592 5597 5601 5605 5608 5612 5618 5621 5627 5631 5633 5635 5638 5640 5643 5645 5648
5606 5614 5622 5628 5635 5641 5645 5649 5651 5651 5650 5648 5646 5644 5641 5638 5634 5629 5622 5615 5608 5600 5592 5581 5573 5571 5578 5586 5590 5595 5598 5599 5603 5607 5610 5614 5624 5620 5624 5629 5632 5634 5635 5637 5640